Location: Diebersbach
(48.5163°N, 8.0558°E)
Time: 09:47:12
(UTC+00:00)

Meteor 1-26 Rocket - Pass Details

Date: 20 June 2021
Orbit: 807 x 928 km, 81.3° (Epoch: 26 July)

Event Time Altitude Azimuth Distance (km) Brightness Sun altitude
Rises 01:46:54 0° 348° (NNW) 3,484 8.1 -11.7°
Reaches altitude 10° 01:49:19 10° 348° (NNW) 2,559 7.4 -11.5°
Maximum altitude 01:55:11 89° 265° (W) 912 4.4 -11.0°
Drops below altitude 10° 02:01:10 10° 171° (S) 2,607 6.3 -10.4°
Enters shadow 02:03:12 - 171° (S) 3,381 6.9 -10.3°
